RH
36 36 34 32 34 34 33 32 30 30 30 29 29 28 27 27 23 19 20 18 18 21 20 16 14 12 13 14 13 14 16 19 19 16 15 15 17 22 32 37 37 38 38 37 41 48 55 58 59 59 58 57 58 58 57 56 53 50 47 46 47 47 45 42 39 35 33 33 33 33 35 34 33 33 33 30 28 31 34 33 33 35 39 45 52 61
45 44 40 40 43 42 40 38 36 36 35 34 33 32 30 29 25 20 21 20 19 21 19 16 15 13 11 12 13 14 16 17 18 18 15 14 16 20 27 34 35 35 36 37 41 48 56 59 59 57 56 57 58 56 56 54 51 50 47 45 46 46 45 42 37 34 34 34 32 31 34 33 31 30 32 31 29 31 33 34 35 36 40 45 53 62
55 50 47 50 51 49 46 44 42 40 39 39 37 36 33 29 27 25 24 23 21 22 20 16 16 13 10 11 12 14 17 15 15 19 17 14 14 17 23 30 34 38 39 39 44 50 54 58 58 56 54 55 57 57 57 54 52 51 48 45 45 45 45 43 38 36 38 38 35 34 34 33 31 30 32 32 31 32 33 34 36 37 40 45 53 61
55 49 51 55 54 51 50 49 48 46 43 42 40 40 35 30 31 31 28 26 25 25 22 19 18 15 11 11 11 12 13 13 13 16 18 16 14 14 18 24 30 37 40 39 46 51 53 58 58 54 52 54 57 60 58 54 51 50 49 47 46 46 46 43 39 39 40 40 39 38 37 34 31 32 33 33 32 32 32 34 37 39 42 46 52 60
47 44 49 54 53 52 52 52 52 51 49 46 43 40 35 32 35 34 31 30 29 27 22 20 22 18 12 12 12 11 12 12 13 15 18 17 15 13 15 19 25 31 36 38 43 50 53 57 56 52 51 52 56 59 56 51 47 48 50 49 48 48 48 45 41 40 41 41 41 41 39 35 33 34 36 34 32 31 32 35 39 41 44 48 53 59
41 39 47 52 53 53 52 51 50 51 51 48 44 39 36 36 37 36 34 33 35 32 22 21 29 24 15 15 14 12 12 12 13 15 18 18 16 15 14 18 23 26 33 37 37 42 50 54 54 52 50 50 54 57 54 48 44 44 47 49 49 49 49 47 43 41 42 41 39 40 37 33 33 35 36 34 32 32 34 39 43 45 47 52 55 60
43 43 48 49 50 54 55 51 48 48 50 47 40 37 38 38 37 36 35 37 41 35 24 24 33 28 20 19 19 16 15 12 14 16 17 18 17 16 15 16 20 24 30 37 36 37 44 51 54 54 51 49 50 52 50 46 43 43 46 48 48 49 49 47 44 43 43 40 38 37 34 32 33 35 35 35 34 34 36 42 44 45 48 54 59 64
49 52 54 54 52 54 55 51 49 50 49 42 36 39 42 39 38 37 37 42 41 34 29 28 31 31 25 22 21 19 17 14 16 16 15 17 18 17 15 14 17 21 25 33 38 40 43 47 52 54 51 46 45 46 47 45 42 43 46 48 48 48 48 46 44 42 42 39 37 35 34 33 35 35 35 37 37 37 39 43 44 44 49 57 63 68
53 53 56 59 57 54 54 54 54 52 47 38 37 43 43 40 40 39 40 43 41 42 40 29 28 34 28 22 21 19 16 15 15 15 13 14 16 17 16 14 15 18 22 27 34 39 42 46 48 50 50 45 43 45 45 42 40 42 46 47 47 48 47 45 43 42 40 38 36 34 33 34 37 37 36 38 40 40 42 44 44 44 50 58 63 66
59 57 58 59 58 58 59 60 57 52 47 42 44 47 44 43 44 43 45 43 43 52 50 31 27 35 31 23 22 20 17 14 13 15 13 13 16 16 16 15 15 17 22 25 29 34 39 44 45 44 47 47 45 46 46 43 42 45 47 47 46 47 47 44 41 40 38 36 35 34 35 36 38 38 37 39 42 42 42 42 42 45 49 54 57 60
56 60 61 59 59 63 65 64 59 56 51 46 46 46 45 46 45 45 47 44 49 59 49 31 26 33 35 28 23 22 20 15 12 14 14 13 15 17 17 16 16 18 23 25 28 31 35 42 46 45 45 46 48 50 50 48 47 49 50 48 46 45 45 42 39 38 36 34 34 35 37 37 38 38 37 38 41 42 43 41 41 45 49 50 51 56
50 54 57 58 60 63 64 64 62 59 55 48 45 45 48 50 48 49 48 48 58 58 41 29 27 33 38 31 24 24 21 17 14 14 14 14 15 17 18 18 16 17 22 26 28 30 34 41 48 51 49 48 51 55 55 52 51 53 53 49 46 45 44 40 38 37 35 32 33 36 37 37 38 39 37 37 40 41 42 40 40 45 48 48 50 55
46 44 47 52 58 60 62 62 62 62 58 51 47 47 52 52 53 58 55 54 59 51 38 32 32 36 36 29 24 23 20 17 16 15 15 14 14 16 17 18 17 16 21 27 29 30 33 38 45 50 51 50 52 55 56 54 55 57 54 48 46 45 43 40 37 36 33 32 33 35 37 37 39 40 37 37 37 38 38 37 39 43 45 47 50 57
56 44 40 45 52 55 57 57 60 65 64 59 55 54 56 56 60 65 60 57 57 50 43 39 39 41 35 26 23 21 18 17 14 15 16 14 13 16 17 18 19 17 18 26 31 31 32 35 42 48 49 49 50 52 54 56 57 57 53 48 46 44 41 38 36 34 32 31 32 34 36 37 39 40 37 35 33 33 33 33 36 40 43 46 52 60
73 60 48 45 47 48 50 52 55 61 64 63 60 59 58 56 59 62 61 59 57 56 51 44 47 48 34 24 22 19 18 18 14 14 17 16 14 16 19 20 22 19 16 21 30 33 31 32 39 46 48 49 48 49 54 56 56 56 53 47 44 42 39 36 35 33 32 31 32 34 36 37 39 39 37 33 30 30 30 32 36 39 43 49 55 62
79 73 60 53 49 46 46 48 50 55 61 63 63 62 55 49 51 56 60 58 58 66 60 47 48 47 34 27 23 20 19 16 14 15 18 20 16 17 22 23 24 23 17 17 27 33 33 32 35 40 43 44 44 46 52 55 55 54 51 46 43 39 37 36 35 34 32 31 32 34 36 36 38 39 36 33 31 29 29 32 37 40 44 51 56 63
78 75 67 63 58 51 48 47 47 52 59 62 64 59 49 48 55 57 59 60 63 69 59 48 48 45 36 31 29 32 28 17 13 16 20 22 20 22 27 29 28 26 20 17 22 30 34 34 33 33 35 38 40 42 47 52 51 47 44 42 40 38 37 36 35 34 32 31 32 35 36 36 38 39 35 32 31 29 29 33 38 42 46 51 57 63
80 76 69 68 65 57 53 52 50 50 54 58 61 58 53 58 62 60 65 70 71 69 59 53 53 50 45 39 39 44 34 18 15 20 24 25 25 29 31 33 34 31 24 18 19 27 33 33 33 32 31 32 35 38 43 47 44 40 40 38 37 37 35 35 35 34 32 31 33 36 36 37 39 39 36 33 31 29 29 33 38 42 47 53 57 61
85 82 76 73 72 65 59 60 60 56 54 56 60 60 61 65 65 64 67 65 68 74 70 61 57 54 49 45 48 50 38 25 25 31 35 33 34 39 37 35 35 32 27 20 19 26 32 33 33 32 31 31 33 37 40 42 39 38 39 37 36 37 36 36 37 35 33 32 34 37 37 38 40 40 37 34 32 30 28 32 38 42 48 53 55 57
90 90 84 78 77 75 69 68 71 66 58 57 60 61 64 65 65 66 64 60 69 81 78 73 69 56 45 45 52 53 44 37 36 42 49 48 47 48 44 38 36 34 30 23 21 25 29 32 31 30 32 31 31 33 35 36 37 38 38 37 38 40 39 39 37 34 33 33 34 37 37 38 41 41 38 35 33 31 30 33 39 43 48 51 53 56
92 95 91 81 81 84 79 74 75 71 64 61 60 61 62 62 61 64 64 62 69 79 82 87 81 58 47 54 56 53 50 44 41 48 56 58 54 49 44 41 39 37 34 25 23 26 27 30 30 29 31 32 31 32 32 33 35 37 38 38 39 41 40 39 37 34 34 34 34 37 38 38 40 41 39 37 34 32 31 35 40 45 48 51 54 58
93 97 95 86 85 87 80 74 73 71 68 64 60 60 60 59 60 65 66 60 62 72 80 88 84 64 58 62 56 54 58 51 45 51 57 58 55 50 46 43 40 38 35 28 24 26 28 29 30 31 33 34 34 34 34 35 36 37 39 40 41 42 40 38 37 34 35 35 36 38 39 39 40 41 40 37 35 33 32 36 41 45 50 52 54 57
92 98 98 90 86 85 75 67 68 70 68 63 58 58 58 57 56 57 59 57 63 73 77 84 84 68 63 69 62 56 57 54 51 53 56 58 56 53 47 41 39 39 36 31 26 26 29 29 29 31 32 34 35 35 36 36 37 38 39 40 42 41 39 38 36 35 36 37 37 39 40 39 40 42 41 37 35 33 34 38 42 46 51 53 53 56
93 98 99 92 87 83 70 60 63 66 64 59 56 55 54 55 52 49 53 60 68 75 77 84 84 65 61 72 67 55 51 53 55 54 55 57 54 52 48 41 40 41 37 32 27 28 30 29 30 31 31 33 34 35 36 37 38 38 38 39 41 39 38 38 37 37 38 37 38 41 41 40 41 43 41 38 34 33 35 39 42 47 51 52 52 56
96 97 99 96 92 89 78 65 63 64 61 57 55 53 51 52 52 51 54 60 66 66 66 75 72 54 54 63 61 57 56 53 54 54 52 52 51 52 50 44 41 42 40 34 28 29 32 31 31 31 31 32 34 35 36 37 37 37 36 37 37 36 37 38 38 39 39 39 41 43 42 41 42 42 40 37 33 33 37 40 43 48 51 51 52 55
95 96 98 98 96 97 92 78 65 63 63 56 50 47 45 46 48 51 55 62 64 60 60 67 59 44 47 55 54 60 63 56 54 53 46 45 49 50 49 46 43 43 43 38 31 30 32 32 31 32 32 33 34 35 36 36 36 35 35 36 35 35 37 37 38 39 40 42 45 44 43 43 44 42 39 36 33 34 39 41 44 48 50 51 53 55
96 95 96 98 97 96 95 82 66 63 66 60 51 44 40 39 41 47 54 58 56 54 59 65 56 43 46 51 51 57 62 55 52 52 46 43 47 48 47 46 44 43 45 42 35 31 32 33 33 32 34 34 34 35 35 34 35 35 36 36 36 36 36 37 39 41 42 45 47 45 44 44 45 42 38 35 33 36 39 41 44 48 49 52 54 55
98 94 91 97 98 95 95 87 73 63 60 59 56 49 43 40 39 43 46 46 47 53 57 57 54 49 47 49 53 57 57 52 52 54 48 42 44 45 44 45 45 44 45 43 37 33 32 33 33 33 34 34 34 34 34 34 34 35 35 35 36 37 36 38 41 42 44 47 48 47 46 46 47 43 38 35 34 37 40 40 43 47 49 52 53 55
99 94 90 95 97 95 96 95 87 73 57 53 55 53 47 43 39 39 39 39 44 50 49 47 50 47 41 46 56 58 55 53 53 52 47 43 45 44 43 45 44 42 43 44 40 35 33 34 34 34 34 33 34 35 35 36 35 36 36 36 36 37 36 39 41 42 46 47 48 50 49 49 49 45 39 36 34 36 39 40 43 47 49 52 54 55
98 95 92 95 93 91 93 97 98 87 64 54 57 56 53 47 40 37 36 37 42 43 40 43 48 44 38 43 51 55 55 53 52 51 47 46 46 44 44 45 43 39 41 45 43 36 33 35 35 34 34 34 35 36 36 37 37 37 38 37 37 37 37 39 41 43 47 48 50 52 51 51 51 46 41 36 35 37 40 40 43 47 50 54 56 56
98 94 93 96 94 88 89 94 98 90 71 61 60 59 58 54 46 39 35 35 40 40 39 46 50 47 44 45 48 52 54 53 55 56 51 47 47 45 45 44 42 40 40 46 47 38 34 36 36 36 36 36 36 37 37 39 39 39 39 38 37 37 37 39 41 44 47 49 52 55 53 53 52 47 41 37 36 39 41 41 43 48 51 54 56 57
99 97 95 99 98 91 88 93 94 87 75 66 62 59 58 57 50 41 35 33 35 37 40 46 50 48 49 49 50 53 55 55 59 59 53 51 51 48 46 47 48 48 47 50 49 39 34 37 37 37 38 37 38 39 39 40 41 40 40 39 38 38 38 40 43 46 48 52 55 56 55 54 51 47 41 37 37 40 41 42 44 48 52 54 57 58
100 100 98 100 100 92 88 93 92 84 76 68 63 62 60 58 54 48 42 38 35 37 42 46 47 49 55 58 60 59 57 55 57 54 52 55 57 56 55 55 55 55 53 52 50 42 36 37 37 38 39 39 40 40 40 40 41 41 40 39 39 39 40 42 45 48 51 55 57 57 56 55 51 46 40 36 36 40 42 43 44 48 51 55 58 59
99 101 99 100 100 93 88 92 90 85 83 76 72 75 72 68 66 58 48 46 44 45 50 53 54 60 66 68 68 66 63 60 56 52 54 60 63 62 61 57 55 56 52 46 45 44 39 37 39 39 40 41 42 43 44 43 43 43 43 41 41 41 42 45 48 51 55 57 58 58 56 55 50 44 39 35 36 40 43 43 44 48 52 56 59 60
98 101 99 100 100 95 91 92 91 90 89 85 86 91 83 77 79 70 57 55 57 60 64 66 65 66 67 68 70 70 71 69 64 59 60 63 60 58 58 56 56 58 51 40 39 43 43 41 42 43 43 44 45 45 46 46 47 47 45 44 43 44 46 49 51 53 56 57 58 57 55 52 48 42 38 35 36 40 42 42 44 48 52 56 59 61
96 99 99 99 100 95 91 93 94 92 91 90 94 97 88 83 86 80 68 66 69 73 77 76 72 67 64 67 72 73 73 73 69 63 61 60 59 59 59 58 58 59 53 42 38 43 46 45 45 46 47 48 49 49 49 49 49 48 47 46 47 48 50 52 54 55 57 57 57 56 53 49 45 40 37 35 36 39 41 42 44 47 51 56 60 62
93 98 98 97 98 96 92 93 93 91 92 94 95 94 89 85 88 87 81 76 77 81 81 77 78 77 73 73 75 73 72 69 63 58 57 57 58 61 61 58 59 59 54 46 41 43 48 50 47 48 50 51 53 55 53 51 49 49 49 49 50 52 53 55 56 57 59 58 56 55 53 49 43 38 36 35 37 40 41 43 45 48 51 56 59 62
88 96 98 98 99 98 96 96 95 93 94 97 97 94 87 82 83 89 90 85 81 82 80 78 84 88 84 78 74 70 70 67 61 57 58 59 59 60 60 57 57 59 57 50 44 44 50 52 50 49 52 54 57 58 56 53 52 51 52 53 54 55 56 57 59 60 59 57 55 54 53 50 44 38 36 36 38 40 43 45 47 49 52 56 59 63
84 91 95 97 97 97 98 98 97 97 97 95 96 95 88 83 83 85 87 84 80 79 82 84 87 88 85 80 75 72 71 70 66 64 64 64 63 62 62 58 55 58 60 55 48 46 51 54 53 52 54 56 58 60 60 59 57 56 56 56 58 60 61 62 63 61 57 55 53 52 53 51 45 38 37 38 38 41 45 48 49 51 53 56 60 64
81 85 88 93 95 95 97 99 98 99 97 93 92 92 89 87 87 85 85 84 82 83 86 86 85 85 84 82 80 80 78 73 69 67 69 69 66 63 62 62 58 57 60 58 51 49 55 57 55 55 57 58 59 62 64 65 63 62 61 61 62 63 65 67 66 61 57 55 54 54 53 50 44 40 39 38 38 42 47 50 50 51 53 57 63 65
78 80 85 92 96 95 97 98 97 97 95 91 92 92 89 87 87 88 90 89 88 90 89 84 84 84 81 79 79 82 83 79 73 69 69 70 68 61 58 61 62 59 60 60 55 52 56 58 57 56 58 60 63 65 67 68 67 67 67 67 67 68 70 72 69 63 59 57 56 55 54 50 45 42 40 38 39 43 47 49 49 49 53 60 66 67
77 77 82 89 92 94 97 98 97 95 91 89 91 92 90 91 92 90 89 89 89 90 87 84 85 85 81 78 79 79 82 82 75 70 69 69 67 63 59 61 63 61 61 60 56 53 56 57 58 58 59 60 62 64 67 68 68 68 68 68 70 70 71 72 69 65 61 58 57 57 55 51 46 42 40 39 40 42 44 45 47 50 57 66 69 67
75 75 81 87 86 88 93 94 93 91 86 86 91 92 91 94 94 91 90 89 88 87 85 83 84 83 80 80 80 80 81 80 74 69 69 69 68 67 64 63 63 62 61 60 58 55 57 58 59 61 62 62 63 66 69 69 68 70 71 71 72 74 77 77 75 69 64 61 60 59 55 50 45 42 40 39 39 39 41 42 45 50 60 70 72 68
71 72 80 83 81 85 89 90 90 88 84 87 94 95 93 91 91 92 93 91 86 84 83 82 83 83 81 79 79 78 79 80 76 70 67 66 65 64 64 62 62 61 59 60 60 58 57 58 59 63 66 66 66 68 70 70 71 76 77 76 76 79 83 84 80 73 68 65 63 60 56 50 46 42 40 39 39 40 41 43 46 50 58 68 70 68
64 65 72 77 79 82 85 86 87 85 82 86 91 92 90 90 90 92 93 92 90 89 87 85 84 82 81 78 77 74 74 76 78 75 70 65 61 59 61 62 63 62 59 58 60 60 58 58 59 63 67 69 68 69 70 73 77 80 81 81 80 80 82 85 83 76 70 67 65 62 57 52 47 43 40 39 41 42 41 44 48 52 59 67 69 66
60 61 67 73 76 76 76 80 83 81 80 84 86 86 87 89 91 92 92 92 92 92 92 92 90 85 81 78 77 75 72 73 75 77 77 73 66 63 62 60 60 62 60 58 59 60 59 59 59 62 65 67 67 68 70 73 76 77 79 83 84 81 81 85 85 79 72 67 64 61 58 55 52 49 46 44 44 43 41 45 50 54 61 70 70 68
62 63 65 67 69 70 72 74 75 75 78 83 83 82 84 86 88 90 90 90 91 91 92 94 93 87 80 76 74 74 75 72 71 74 77 77 74 73 68 61 57 56 56 56 58 57 57 57 57 59 62 63 64 68 71 73 74 74 76 80 83 83 82 80 81 81 79 74 67 61 58 57 56 53 50 48 47 45 44 48 53 55 61 67 68 70
62 63 65 66 65 66 68 69 69 70 76 80 80 80 82 83 84 86 87 89 92 94 94 93 91 88 85 80 75 74 75 73 67 67 73 78 80 79 74 67 61 55 51 52 54 55 56 59 61 62 63 63 65 68 70 71 71 72 72 71 72 77 81 81 82 84 82 78 73 64 57 56 57 55 51 49 48 48 49 51 55 60 63 64 66 70
58 60 64 66 65 62 62 65 67 69 71 75 79 80 80 82 83 85 86 89 92 94 93 90 88 88 89 89 84 80 80 78 70 67 71 76 79 79 75 70 68 62 54 52 53 55 57 61 65 66 66 65 65 67 68 68 67 68 69 67 65 69 76 82 86 86 83 82 78 67 58 56 56 52 48 47 49 52 56 58 61 65 67 67 70 72
58 62 65 67 69 67 63 64 68 73 76 77 79 81 81 81 84 86 87 88 91 93 90 86 82 80 82 88 90 87 83 81 77 73 72 72 74 76 76 74 72 69 63 59 59 60 59 58 59 62 63 63 63 64 66 65 63 64 67 68 66 67 73 79 82 84 86 86 81 70 60 56 53 47 44 46 51 57 60 62 66 70 73 75 76 74
63 67 71 73 75 74 69 66 68 74 77 76 78 81 81 80 84 88 87 87 89 91 89 86 82 78 80 88 94 93 88 86 82 77 73 71 71 72 72 71 70 69 67 64 64 64 63 61 60 62 63 62 61 62 63 62 61 63 65 67 67 66 67 71 76 80 83 83 79 70 61 55 50 47 47 50 55 59 62 64 68 75 79 79 74 71